TimeEDT,TemperatureF,Dew PointF,Humidity,Sea Level PressureIn,VisibilityMPH,Wind Direction,Wind SpeedMPH,Gust SpeedMPH,PrecipitationIn,Events,Conditions,WindDirDegrees,DateUTC
12:54 AM,73.0,64.9,76,30.03,10.0,SW,10.4,-,N/A,,Mostly Cloudy,230,2013-06-24 04:54:00
1:54 AM,72.0,64.9,78,30.03,10.0,SW,9.2,-,N/A,,Mostly Cloudy,220,2013-06-24 05:54:00
2:54 AM,71.1,64.9,81,30.01,10.0,SW,8.1,-,N/A,,Scattered Clouds,220,2013-06-24 06:54:00
3:54 AM,70.0,66.0,87,30.02,10.0,SW,6.9,-,N/A,,Scattered Clouds,220,2013-06-24 07:54:00
4:54 AM,70.0,66.0,87,30.02,10.0,SW,5.8,-,N/A,,Overcast,230,2013-06-24 08:54:00
5:54 AM,71.1,66.0,84,30.03,10.0,SW,5.8,-,N/A,,Overcast,220,2013-06-24 09:54:00
6:54 AM,73.0,66.9,81,30.04,10.0,SW,6.9,-,N/A,,Mostly Cloudy,220,2013-06-24 10:54:00
7:54 AM,75.9,68.0,76,30.04,10.0,SW,8.1,-,N/A,,Mostly Cloudy,230,2013-06-24 11:54:00
8:54 AM,80.1,68.0,67,30.04,10.0,WSW,15.0,18.4,N/A,,Scattered Clouds,250,2013-06-24 12:54:00
9:54 AM,81.0,66.9,62,30.04,10.0,WSW,16.1,-,N/A,,Mostly Cloudy,250,2013-06-24 13:54:00
10:54 AM,82.9,68.0,60,30.03,10.0,WSW,13.8,-,N/A,,Mostly Cloudy,240,2013-06-24 14:54:00
11:54 AM,82.9,68.0,60,30.03,10.0,SW,11.5,-,N/A,,Overcast,220,2013-06-24 15:54:00
12:54 PM,86.0,68.0,55,30.04,10.0,West,10.4,-,N/A,,Overcast,260,2013-06-24 16:54:00
1:54 PM,86.0,68.0,55,30.02,10.0,West,15.0,20.7,N/A,,Mostly Cloudy,260,2013-06-24 17:54:00
2:54 PM,86.0,66.9,53,30.00,10.0,West,20.7,27.6,N/A,,Scattered Clouds,260,2013-06-24 18:54:00
3:54 PM,84.9,64.0,49,29.98,10.0,West,18.4,25.3,N/A,,Scattered Clouds,260,2013-06-24 19:54:00
4:54 PM,84.9,62.1,46,29.96,10.0,WSW,17.3,25.3,N/A,,Scattered Clouds,250,2013-06-24 20:54:00
5:54 PM,84.0,64.0,51,29.95,10.0,WSW,20.7,-,N/A,,Scattered Clouds,250,2013-06-24 21:54:00
6:54 PM,84.0,64.9,53,29.94,10.0,WSW,9.2,-,N/A,,Scattered Clouds,240,2013-06-24 22:54:00
7:54 PM,82.0,63.0,52,29.94,10.0,WSW,8.1,-,N/A,,Scattered Clouds,250,2013-06-24 23:54:00
8:54 PM,79.0,62.1,56,29.95,10.0,SW,10.4,-,N/A,,Partly Cloudy,230,2013-06-25 00:54:00
9:54 PM,75.0,62.1,64,29.96,10.0,SW,8.1,-,N/A,,Partly Cloudy,230,2013-06-25 01:54:00
10:54 PM,73.9,63.0,68,29.97,10.0,WSW,5.8,-,N/A,,Partly Cloudy,240,2013-06-25 02:54:00
11:54 PM,72.0,63.0,73,29.95,10.0,SW,5.8,-,N/A,,Partly Cloudy,230,2013-06-25 03:54:00